Location: Burbank
(38.7788°N, 114.0429°W)
Time: 13:55:05
(UTC+00:00)

Vanguard 2 - Pass Details

Date: 18 May 2026
Orbit: 553 x 2894 km, 32.9° (Epoch: 6 June)

Event Time Altitude Azimuth Distance (km) Brightness Sun altitude
Rises 12:59:11 0° 277° (W) 6,734 11.8 5.9°
Reaches altitude 10° 13:03:53 10° 274° (W) 5,683 11.4 6.8°
Maximum altitude 13:20:11 55° 203° (SSW) 2,751 10.3 9.8°
Drops below altitude 10° 13:31:38 10° 130° (SE) 4,100 11.8 12.0°
Sets 13:34:27 0° 125° (SE) 4,812 12.2 12.5°
